Location: Schommer Observatory
(40.5200°N, 74.4500°W)
Time: 01:29:41
(UTC-04:00)

Hubble Space Telescope - Pass Details

Date: 09 October 2017
Orbit: 537 x 541 km, 28.5° (Epoch: 18 October)

Event Time Altitude Azimuth Distance (km) Brightness Sun altitude
Exits shadow 05:17:43 12° 182° (S) 1,634 3.1 -20.7°
Drops below altitude 10° 05:19:00 10° 164° (SSE) 1,786 3.5 -20.5°
Sets 05:22:23 0° 135° (SE) 2,677 4.9 -19.8°
